Year,Month,Day,Hour,Minute,Value (Times are PST for temperature in C)
2017,06,23,00,00,13.50
2017,06,23,00,01,13.50
2017,06,23,00,02,13.50
2017,06,23,00,03,13.50
2017,06,23,00,04,13.50
2017,06,23,00,05,13.50
2017,06,23,00,06,13.50
2017,06,23,00,07,13.40
2017,06,23,00,08,13.40
2017,06,23,00,09,13.40
2017,06,23,00,10,13.40
2017,06,23,00,11,13.40
2017,06,23,00,12,13.40
2017,06,23,00,13,13.40
2017,06,23,00,14,13.30
2017,06,23,00,15,13.30
2017,06,23,00,16,13.30
2017,06,23,00,17,13.30
2017,06,23,00,18,13.30
2017,06,23,00,19,13.30
2017,06,23,00,20,13.30
2017,06,23,00,21,13.30
2017,06,23,00,22,13.30
2017,06,23,00,23,13.30
2017,06,23,00,24,13.30
2017,06,23,00,25,13.30
2017,06,23,00,26,13.30
2017,06,23,00,27,13.30
2017,06,23,00,28,13.30
2017,06,23,00,29,13.30
2017,06,23,00,30,13.30
2017,06,23,00,31,13.30
2017,06,23,00,32,13.30
2017,06,23,00,33,13.30
2017,06,23,00,34,13.30
2017,06,23,00,35,13.30
2017,06,23,00,36,13.30
2017,06,23,00,37,13.30
2017,06,23,00,38,13.30
2017,06,23,00,39,13.30
2017,06,23,00,40,13.30
2017,06,23,00,41,13.30
2017,06,23,00,42,13.40
2017,06,23,00,43,13.40
2017,06,23,00,44,13.50
2017,06,23,00,45,13.50
2017,06,23,00,46,13.60
2017,06,23,00,47,13.60
2017,06,23,00,48,13.60
2017,06,23,00,49,13.70
2017,06,23,00,50,13.70
2017,06,23,00,51,13.80
2017,06,23,00,52,13.90
2017,06,23,00,53,14.00
2017,06,23,00,54,14.10
2017,06,23,00,55,14.30
2017,06,23,00,56,14.40
2017,06,23,00,57,14.40
2017,06,23,00,58,14.50
2017,06,23,00,59,14.50
2017,06,23,01,00,14.60
2017,06,23,01,01,14.60
2017,06,23,01,02,14.60
2017,06,23,01,03,14.60
2017,06,23,01,04,14.50
2017,06,23,01,05,14.50
2017,06,23,01,06,14.60
2017,06,23,01,07,14.60
2017,06,23,01,08,14.60
2017,06,23,01,09,14.60
2017,06,23,01,10,14.60
2017,06,23,01,11,14.60
2017,06,23,01,12,14.60
2017,06,23,01,13,14.60
2017,06,23,01,14,14.60
2017,06,23,01,15,14.50
2017,06,23,01,16,14.50
2017,06,23,01,17,14.50
2017,06,23,01,18,14.50
2017,06,23,01,19,14.50
2017,06,23,01,20,14.40
2017,06,23,01,21,14.40
2017,06,23,01,22,14.40
2017,06,23,01,23,14.40
2017,06,23,01,24,14.40
2017,06,23,01,25,14.40
2017,06,23,01,26,14.40
2017,06,23,01,27,14.40
2017,06,23,01,28,14.40
2017,06,23,01,29,14.40
2017,06,23,01,30,14.40
2017,06,23,01,31,14.40
2017,06,23,01,32,14.40
2017,06,23,01,33,14.40
2017,06,23,01,34,14.40
2017,06,23,01,35,14.40
2017,06,23,01,36,14.50
2017,06,23,01,37,14.50
2017,06,23,01,38,14.60
2017,06,23,01,39,14.70
2017,06,23,01,40,14.70
2017,06,23,01,41,14.70
2017,06,23,01,42,14.70
2017,06,23,01,43,14.70
2017,06,23,01,44,14.80
2017,06,23,01,45,14.80
2017,06,23,01,46,14.80
2017,06,23,01,47,14.80
2017,06,23,01,48,14.80
2017,06,23,01,49,14.80
2017,06,23,01,50,14.80
2017,06,23,01,51,14.80
2017,06,23,01,52,14.80
2017,06,23,01,53,14.80
2017,06,23,01,54,14.80
2017,06,23,01,55,14.80
2017,06,23,01,56,14.70
2017,06,23,01,57,14.70
2017,06,23,01,58,14.70
2017,06,23,01,59,14.60
2017,06,23,02,00,14.60
2017,06,23,02,01,14.50
2017,06,23,02,02,14.50
2017,06,23,02,03,14.50
2017,06,23,02,04,14.40
2017,06,23,02,05,14.40
2017,06,23,02,06,14.30
2017,06,23,02,07,14.30
2017,06,23,02,08,14.20
2017,06,23,02,09,14.20
2017,06,23,02,10,14.10
2017,06,23,02,11,14.10
2017,06,23,02,12,14.10
2017,06,23,02,13,14.10
2017,06,23,02,14,14.00
2017,06,23,02,15,14.00
2017,06,23,02,16,14.00
2017,06,23,02,17,14.00
2017,06,23,02,18,14.00
2017,06,23,02,19,14.10
2017,06,23,02,20,14.10
2017,06,23,02,21,14.10
2017,06,23,02,22,14.20
2017,06,23,02,23,14.30
2017,06,23,02,24,14.30
2017,06,23,02,25,14.30
2017,06,23,02,26,14.30
2017,06,23,02,27,14.30
2017,06,23,02,28,14.40
2017,06,23,02,29,14.40
2017,06,23,02,30,14.40
2017,06,23,02,31,14.40
2017,06,23,02,32,14.40
2017,06,23,02,33,14.30
2017,06,23,02,34,14.30
2017,06,23,02,35,14.30
2017,06,23,02,36,14.30
2017,06,23,02,37,14.30
2017,06,23,02,38,14.30
2017,06,23,02,39,14.30
2017,06,23,02,40,14.20
2017,06,23,02,41,14.20
2017,06,23,02,42,14.20
2017,06,23,02,43,14.20
2017,06,23,02,44,14.20
2017,06,23,02,45,14.20
2017,06,23,02,46,14.20
2017,06,23,02,47,14.20
2017,06,23,02,48,14.20
2017,06,23,02,49,14.20
2017,06,23,02,50,14.20
2017,06,23,02,51,14.20
2017,06,23,02,52,14.20
2017,06,23,02,53,14.20
2017,06,23,02,54,14.20
2017,06,23,02,55,14.20
2017,06,23,02,56,14.20
2017,06,23,02,57,14.10
2017,06,23,02,58,14.10
2017,06,23,02,59,14.10
2017,06,23,03,00,14.10
2017,06,23,03,01,14.10
2017,06,23,03,02,14.10
2017,06,23,03,03,14.00
2017,06,23,03,04,14.00
2017,06,23,03,05,14.00
2017,06,23,03,06,13.90
2017,06,23,03,07,13.90
2017,06,23,03,08,13.90
2017,06,23,03,09,13.80
2017,06,23,03,10,13.80
2017,06,23,03,11,13.80
2017,06,23,03,12,13.70
2017,06,23,03,13,13.70
2017,06,23,03,14,13.70
2017,06,23,03,15,13.60
2017,06,23,03,16,13.60
2017,06,23,03,17,13.60
2017,06,23,03,18,13.50
2017,06,23,03,19,13.50
2017,06,23,03,20,13.40
2017,06,23,03,21,13.40
2017,06,23,03,22,13.40
2017,06,23,03,23,13.30
2017,06,23,03,24,13.30
2017,06,23,03,25,13.30
2017,06,23,03,26,13.30
2017,06,23,03,27,13.30
2017,06,23,03,28,13.20
2017,06,23,03,29,13.20
2017,06,23,03,30,13.20
2017,06,23,03,31,13.20
2017,06,23,03,32,13.20
2017,06,23,03,33,13.20
2017,06,23,03,34,13.20
2017,06,23,03,35,13.20
2017,06,23,03,36,13.20
2017,06,23,03,37,13.10
2017,06,23,03,38,13.10
2017,06,23,03,39,13.10
2017,06,23,03,40,13.10
2017,06,23,03,41,13.00
2017,06,23,03,42,13.00
2017,06,23,03,43,13.00
2017,06,23,03,44,13.00
2017,06,23,03,45,12.90
2017,06,23,03,46,12.90
2017,06,23,03,47,12.90
2017,06,23,03,48,12.90
2017,06,23,03,49,12.90
2017,06,23,03,50,12.90
2017,06,23,03,51,12.80
2017,06,23,03,52,12.80
2017,06,23,03,53,12.80
2017,06,23,03,54,12.80
2017,06,23,03,55,12.80
2017,06,23,03,56,12.80
2017,06,23,03,57,12.70
2017,06,23,03,58,12.70
2017,06,23,03,59,12.70
2017,06,23,04,00,12.60
2017,06,23,04,01,12.60
2017,06,23,04,02,12.60
2017,06,23,04,03,12.60
2017,06,23,04,04,12.50
2017,06,23,04,05,12.50
2017,06,23,04,06,12.40
2017,06,23,04,07,12.40
2017,06,23,04,08,12.30
2017,06,23,04,09,12.30
2017,06,23,04,10,12.20
2017,06,23,04,11,12.20
2017,06,23,04,12,12.10
2017,06,23,04,13,12.00
2017,06,23,04,14,12.00
2017,06,23,04,15,11.90
2017,06,23,04,16,11.80
2017,06,23,04,17,11.80
2017,06,23,04,18,11.80
2017,06,23,04,19,11.80
2017,06,23,04,20,11.80
2017,06,23,04,21,11.70
2017,06,23,04,22,11.70
2017,06,23,04,23,11.80
2017,06,23,04,24,11.80
2017,06,23,04,25,11.70
2017,06,23,04,26,11.70
2017,06,23,04,27,11.70
2017,06,23,04,28,11.60
2017,06,23,04,29,11.60
2017,06,23,04,30,11.60
2017,06,23,04,31,11.50
2017,06,23,04,32,11.50
2017,06,23,04,33,11.50
2017,06,23,04,34,11.40
2017,06,23,04,35,11.40
2017,06,23,04,36,11.40
2017,06,23,04,37,11.30
2017,06,23,04,38,11.30
2017,06,23,04,39,11.30
2017,06,23,04,40,11.20
2017,06,23,04,41,11.20
2017,06,23,04,42,11.10
2017,06,23,04,43,11.10
2017,06,23,04,44,11.00
2017,06,23,04,45,11.00
2017,06,23,04,46,10.90
2017,06,23,04,47,10.90
2017,06,23,04,48,10.80
2017,06,23,04,49,10.80
2017,06,23,04,50,10.80
2017,06,23,04,51,10.80
2017,06,23,04,52,10.70
2017,06,23,04,53,10.70
2017,06,23,04,54,10.70
2017,06,23,04,55,10.70
2017,06,23,04,56,10.70
2017,06,23,04,57,10.70
2017,06,23,04,58,10.70
2017,06,23,04,59,10.70
2017,06,23,05,00,10.70
2017,06,23,05,01,10.70
2017,06,23,05,02,10.70
2017,06,23,05,03,10.70
2017,06,23,05,04,10.60
2017,06,23,05,05,10.60
2017,06,23,05,06,10.60
2017,06,23,05,07,10.70
2017,06,23,05,08,10.70
2017,06,23,05,09,10.70
2017,06,23,05,10,10.70
2017,06,23,05,11,10.70
2017,06,23,05,12,10.70
2017,06,23,05,13,10.70
2017,06,23,05,14,10.70
2017,06,23,05,15,10.70
2017,06,23,05,16,10.70
2017,06,23,05,17,10.70
2017,06,23,05,18,10.60
2017,06,23,05,19,10.60
2017,06,23,05,20,10.60
2017,06,23,05,21,10.60
2017,06,23,05,22,10.50
2017,06,23,05,23,10.50
2017,06,23,05,24,10.50
2017,06,23,05,25,10.50
2017,06,23,05,26,10.40
2017,06,23,05,27,10.40
2017,06,23,05,28,10.40
2017,06,23,05,29,10.40
2017,06,23,05,30,10.40
2017,06,23,05,31,10.40
2017,06,23,05,32,10.30
2017,06,23,05,33,10.30
2017,06,23,05,34,10.30
2017,06,23,05,35,10.30
2017,06,23,05,36,10.30
2017,06,23,05,37,10.20
2017,06,23,05,38,10.20
2017,06,23,05,39,10.20
2017,06,23,05,40,10.10
2017,06,23,05,41,10.10
2017,06,23,05,42,10.10
2017,06,23,05,43,10.10
2017,06,23,05,44,10.10
2017,06,23,05,45,10.10
2017,06,23,05,46,10.10
2017,06,23,05,47,10.10
2017,06,23,05,48,10.10
2017,06,23,05,49,10.10
2017,06,23,05,50,10.10
2017,06,23,05,51,10.10
2017,06,23,05,52,10.10
2017,06,23,05,53,10.10
2017,06,23,05,54,10.10
2017,06,23,05,55,10.10
2017,06,23,05,56,10.10
2017,06,23,05,57,10.10
2017,06,23,05,58,10.10
2017,06,23,05,59,10.10
2017,06,23,06,00,10.10
2017,06,23,06,01,10.10
2017,06,23,06,02,10.10
2017,06,23,06,03,10.10
2017,06,23,06,04,10.10
2017,06,23,06,05,10.10
2017,06,23,06,06,10.10
2017,06,23,06,07,10.10
2017,06,23,06,08,10.10
2017,06,23,06,09,10.10
2017,06,23,06,10,10.10
2017,06,23,06,11,10.10
2017,06,23,06,12,10.10
2017,06,23,06,13,10.10
2017,06,23,06,14,10.10
2017,06,23,06,15,10.20
2017,06,23,06,16,10.20
2017,06,23,06,17,10.30
2017,06,23,06,18,10.30
2017,06,23,06,19,10.40
2017,06,23,06,20,10.50
2017,06,23,06,21,10.60
2017,06,23,06,22,10.70
2017,06,23,06,23,10.80
2017,06,23,06,24,10.80
2017,06,23,06,25,10.90
2017,06,23,06,26,11.00
2017,06,23,06,27,11.20
2017,06,23,06,28,11.30
2017,06,23,06,29,11.40
2017,06,23,06,30,11.50
2017,06,23,06,31,11.50
2017,06,23,06,32,11.60
2017,06,23,06,33,11.70
2017,06,23,06,34,11.80
2017,06,23,06,35,11.80
2017,06,23,06,36,11.90
2017,06,23,06,37,12.00
2017,06,23,06,38,12.00
2017,06,23,06,39,12.10
2017,06,23,06,40,12.20
2017,06,23,06,41,12.20
2017,06,23,06,42,12.30
2017,06,23,06,43,12.30
2017,06,23,06,44,12.40
2017,06,23,06,45,12.50
2017,06,23,06,46,12.50
2017,06,23,06,47,12.60
2017,06,23,06,48,12.60
2017,06,23,06,49,12.70
2017,06,23,06,50,12.70
2017,06,23,06,51,12.80
2017,06,23,06,52,12.90
2017,06,23,06,53,13.00
2017,06,23,06,54,13.10
2017,06,23,06,55,13.10
2017,06,23,06,56,13.20
2017,06,23,06,57,13.20
2017,06,23,06,58,13.30
2017,06,23,06,59,13.30
2017,06,23,07,00,13.30
2017,06,23,07,01,13.40
2017,06,23,07,02,13.40
2017,06,23,07,03,13.40
2017,06,23,07,04,13.50
2017,06,23,07,05,13.50
2017,06,23,07,06,13.60
2017,06,23,07,07,13.60
2017,06,23,07,08,13.60
2017,06,23,07,09,13.60
2017,06,23,07,10,13.60
2017,06,23,07,11,13.70
2017,06,23,07,12,13.70
2017,06,23,07,13,13.70
2017,06,23,07,14,13.70
2017,06,23,07,15,13.80
2017,06,23,07,16,13.80
2017,06,23,07,17,13.80
2017,06,23,07,18,13.90
2017,06,23,07,19,14.00
2017,06,23,07,20,14.00
2017,06,23,07,21,14.10
2017,06,23,07,22,14.10
2017,06,23,07,23,14.20
2017,06,23,07,24,14.20
2017,06,23,07,25,14.30
2017,06,23,07,26,14.30
2017,06,23,07,27,14.30
2017,06,23,07,28,14.30
2017,06,23,07,29,14.40
2017,06,23,07,30,14.40
2017,06,23,07,31,14.40
2017,06,23,07,32,14.40
2017,06,23,07,33,14.40
2017,06,23,07,34,14.40
2017,06,23,07,35,14.40
2017,06,23,07,36,14.40
2017,06,23,07,37,14.40
2017,06,23,07,38,14.40
2017,06,23,07,39,14.40
2017,06,23,07,40,14.50
2017,06,23,07,41,14.50
2017,06,23,07,42,14.50
2017,06,23,07,43,14.60
2017,06,23,07,44,14.60
2017,06,23,07,45,14.60
2017,06,23,07,46,14.70
2017,06,23,07,47,14.70
2017,06,23,07,48,14.70
2017,06,23,07,49,14.70
2017,06,23,07,50,14.70
2017,06,23,07,51,14.80
2017,06,23,07,52,14.80
2017,06,23,07,53,14.90
2017,06,23,07,54,14.90
2017,06,23,07,55,15.00
2017,06,23,07,56,15.00
2017,06,23,07,57,15.00
2017,06,23,07,58,15.00
2017,06,23,07,59,15.10
2017,06,23,08,00,15.10
2017,06,23,08,01,15.10
2017,06,23,08,02,15.10
2017,06,23,08,03,15.10
2017,06,23,08,04,15.10
2017,06,23,08,05,15.00
2017,06,23,08,06,15.00
2017,06,23,08,07,15.00
2017,06,23,08,08,15.00
2017,06,23,08,09,15.00
2017,06,23,08,10,15.00
2017,06,23,08,11,15.10
2017,06,23,08,12,15.10
2017,06,23,08,13,15.10
2017,06,23,08,14,15.20
2017,06,23,08,15,15.20
2017,06,23,08,16,15.20
2017,06,23,08,17,15.20
2017,06,23,08,18,15.20
2017,06,23,08,19,15.20
2017,06,23,08,20,15.30
2017,06,23,08,21,15.30
2017,06,23,08,22,15.30
2017,06,23,08,23,15.30
2017,06,23,08,24,15.40
2017,06,23,08,25,15.40
2017,06,23,08,26,15.40
2017,06,23,08,27,15.40
2017,06,23,08,28,15.50
2017,06,23,08,29,15.50
2017,06,23,08,30,15.60
2017,06,23,08,31,15.70
2017,06,23,08,32,15.70
2017,06,23,08,33,15.80
2017,06,23,08,34,15.80
2017,06,23,08,35,15.80
2017,06,23,08,36,15.80
2017,06,23,08,37,15.80
2017,06,23,08,38,15.90
2017,06,23,08,39,15.90
2017,06,23,08,40,15.90
2017,06,23,08,41,16.00
2017,06,23,08,42,16.00
2017,06,23,08,43,16.10
2017,06,23,08,44,16.10
2017,06,23,08,45,16.20
2017,06,23,08,46,16.30
2017,06,23,08,47,16.30
2017,06,23,08,48,16.30
2017,06,23,08,49,16.40
2017,06,23,08,50,16.40
2017,06,23,08,51,16.50
2017,06,23,08,52,16.40
2017,06,23,08,53,16.50
2017,06,23,08,54,16.50
2017,06,23,08,55,16.50
2017,06,23,08,56,16.50
2017,06,23,08,57,16.60
2017,06,23,08,58,16.60
2017,06,23,08,59,16.70
2017,06,23,09,00,16.70
2017,06,23,09,01,16.70
2017,06,23,09,02,16.80
2017,06,23,09,03,16.80
2017,06,23,09,04,16.80
2017,06,23,09,05,16.80
2017,06,23,09,06,16.90
2017,06,23,09,07,16.90
2017,06,23,09,08,16.90
2017,06,23,09,09,16.80
2017,06,23,09,10,16.80
2017,06,23,09,11,16.80
2017,06,23,09,12,16.80
2017,06,23,09,13,16.80
2017,06,23,09,14,16.70
2017,06,23,09,15,16.70
2017,06,23,09,16,16.60
2017,06,23,09,17,16.60
2017,06,23,09,18,16.60
2017,06,23,09,19,16.50
2017,06,23,09,20,16.50
2017,06,23,09,21,16.50
2017,06,23,09,22,16.50
2017,06,23,09,23,16.50
2017,06,23,09,24,16.60
2017,06,23,09,25,16.60
2017,06,23,09,26,16.70
2017,06,23,09,27,16.70
2017,06,23,09,28,16.70
2017,06,23,09,29,16.80
2017,06,23,09,30,16.80
2017,06,23,09,31,16.80
2017,06,23,09,32,16.90
2017,06,23,09,33,16.90
2017,06,23,09,34,16.90
2017,06,23,09,35,16.90
2017,06,23,09,36,16.90
2017,06,23,09,37,16.90
2017,06,23,09,38,16.90
2017,06,23,09,39,16.90
2017,06,23,09,40,16.90
2017,06,23,09,41,16.90
2017,06,23,09,42,16.90
2017,06,23,09,43,16.90
2017,06,23,09,44,16.90
2017,06,23,09,45,17.00
2017,06,23,09,46,17.00
2017,06,23,09,47,17.10
2017,06,23,09,48,17.20
2017,06,23,09,49,17.20
2017,06,23,09,50,17.30
2017,06,23,09,51,17.30
2017,06,23,09,52,17.40
2017,06,23,09,53,17.40
2017,06,23,09,54,17.40
2017,06,23,09,55,17.50
2017,06,23,09,56,17.50
2017,06,23,09,57,17.60
2017,06,23,09,58,17.60
2017,06,23,09,59,17.70
2017,06,23,10,00,17.70
2017,06,23,10,01,17.80
2017,06,23,10,02,17.80
2017,06,23,10,03,17.90
2017,06,23,10,04,17.90
2017,06,23,10,05,18.00
2017,06,23,10,06,18.10
2017,06,23,10,07,18.20
2017,06,23,10,08,18.30
2017,06,23,10,09,18.40
2017,06,23,10,10,18.40
2017,06,23,10,11,18.40
2017,06,23,10,12,18.50
2017,06,23,10,13,18.50
2017,06,23,10,14,18.50
2017,06,23,10,15,18.60
2017,06,23,10,16,18.50
2017,06,23,10,17,18.40
2017,06,23,10,18,18.20
2017,06,23,10,19,18.10
2017,06,23,10,20,18.00
2017,06,23,10,21,17.90
2017,06,23,10,22,17.90
2017,06,23,10,23,17.80
2017,06,23,10,24,17.80
2017,06,23,10,25,17.90
2017,06,23,10,26,17.90
2017,06,23,10,27,18.00
2017,06,23,10,28,18.00
2017,06,23,10,29,18.00
2017,06,23,10,30,18.10
2017,06,23,10,31,18.10
2017,06,23,10,32,18.10
2017,06,23,10,33,18.10
2017,06,23,10,34,18.10
2017,06,23,10,35,18.10
2017,06,23,10,36,18.10
2017,06,23,10,37,18.20
2017,06,23,10,38,18.20
2017,06,23,10,39,18.20
2017,06,23,10,40,18.20
2017,06,23,10,41,18.20
2017,06,23,10,42,18.10
2017,06,23,10,43,18.00
2017,06,23,10,44,18.00
2017,06,23,10,45,17.90
2017,06,23,10,46,17.90
2017,06,23,10,47,18.00
2017,06,23,10,48,18.00
2017,06,23,10,49,18.00
2017,06,23,10,50,18.10
2017,06,23,10,51,18.10
2017,06,23,10,52,18.30
2017,06,23,10,53,18.30
2017,06,23,10,54,18.40
2017,06,23,10,55,18.40
2017,06,23,10,56,18.50
2017,06,23,10,57,18.50
2017,06,23,10,58,18.50
2017,06,23,10,59,18.60
2017,06,23,11,00,18.60
2017,06,23,11,01,18.70
2017,06,23,11,02,18.70
2017,06,23,11,03,18.80
2017,06,23,11,04,18.90
2017,06,23,11,05,18.90
2017,06,23,11,06,18.90
2017,06,23,11,07,18.90
2017,06,23,11,08,18.90
2017,06,23,11,09,18.80
2017,06,23,11,10,18.80
2017,06,23,11,11,18.80
2017,06,23,11,12,18.80
2017,06,23,11,13,18.80
2017,06,23,11,14,18.90
2017,06,23,11,15,18.90
2017,06,23,11,16,19.00
2017,06,23,11,17,19.00
2017,06,23,11,18,19.10
2017,06,23,11,19,19.10
2017,06,23,11,20,19.20
2017,06,23,11,21,19.30
2017,06,23,11,22,19.30
2017,06,23,11,23,19.30
2017,06,23,11,24,19.40
2017,06,23,11,25,19.40
2017,06,23,11,26,19.50
2017,06,23,11,27,19.50
2017,06,23,11,28,19.50
2017,06,23,11,29,19.50
2017,06,23,11,30,19.60
2017,06,23,11,31,19.60
2017,06,23,11,32,19.60
2017,06,23,11,33,19.60
2017,06,23,11,34,19.60
2017,06,23,11,35,19.60
2017,06,23,11,36,19.60
2017,06,23,11,37,19.70
2017,06,23,11,38,19.70
2017,06,23,11,39,19.70
2017,06,23,11,40,19.70
2017,06,23,11,41,19.80
2017,06,23,11,42,19.80
2017,06,23,11,43,19.90
2017,06,23,11,44,20.00
2017,06,23,11,45,20.00
2017,06,23,11,46,20.10
2017,06,23,11,47,20.20
2017,06,23,11,48,20.20
2017,06,23,11,49,20.20
2017,06,23,11,50,20.20
2017,06,23,11,51,20.10
2017,06,23,11,52,20.10
2017,06,23,11,53,20.00
2017,06,23,11,54,20.00
2017,06,23,11,55,20.00
2017,06,23,11,56,20.00
2017,06,23,11,57,20.00
2017,06,23,11,58,20.00
2017,06,23,11,59,20.00
2017,06,23,12,00,19.90
2017,06,23,12,01,19.90
2017,06,23,12,02,20.00
2017,06,23,12,03,20.00
2017,06,23,12,04,20.00
2017,06,23,12,05,20.10
2017,06,23,12,06,20.10
2017,06,23,12,07,20.10
2017,06,23,12,08,20.20
2017,06,23,12,09,20.20
2017,06,23,12,10,20.20
2017,06,23,12,11,20.10
2017,06,23,12,12,20.10
2017,06,23,12,13,20.10
2017,06,23,12,14,20.10
2017,06,23,12,15,20.20
2017,06,23,12,16,20.20
2017,06,23,12,17,20.20
2017,06,23,12,18,20.20
2017,06,23,12,19,20.30
2017,06,23,12,20,20.30
2017,06,23,12,21,20.30
2017,06,23,12,22,20.30
2017,06,23,12,23,20.40
2017,06,23,12,24,20.40
2017,06,23,12,25,20.50
2017,06,23,12,26,20.50
2017,06,23,12,27,20.60
2017,06,23,12,28,20.60
2017,06,23,12,29,20.70
2017,06,23,12,30,20.70
2017,06,23,12,31,20.80
2017,06,23,12,32,20.80
2017,06,23,12,33,20.90
2017,06,23,12,34,20.90
2017,06,23,12,35,21.00
2017,06,23,12,36,21.00
2017,06,23,12,37,21.10
2017,06,23,12,38,21.20
2017,06,23,12,39,21.30
2017,06,23,12,40,21.30
2017,06,23,12,41,21.30
2017,06,23,12,42,21.30
2017,06,23,12,43,21.30
2017,06,23,12,44,21.30
2017,06,23,12,45,21.30
2017,06,23,12,46,21.40
2017,06,23,12,47,21.30
2017,06,23,12,48,21.30
2017,06,23,12,49,21.30
2017,06,23,12,50,21.30
2017,06,23,12,51,21.30
2017,06,23,12,52,21.40
2017,06,23,12,53,21.40
2017,06,23,12,54,21.50
2017,06,23,12,55,21.50
2017,06,23,12,56,21.50
2017,06,23,12,57,21.60
2017,06,23,12,58,21.60
2017,06,23,12,59,21.60
2017,06,23,13,00,21.70
2017,06,23,13,01,21.70
2017,06,23,13,02,21.70
2017,06,23,13,03,21.70
2017,06,23,13,04,21.70
2017,06,23,13,05,21.70
2017,06,23,13,06,21.60
2017,06,23,13,07,21.50
2017,06,23,13,08,21.50
2017,06,23,13,09,21.50
2017,06,23,13,10,21.50
2017,06,23,13,11,21.60
2017,06,23,13,12,21.60
2017,06,23,13,13,21.80
2017,06,23,13,14,21.90
2017,06,23,13,15,22.00
2017,06,23,13,16,22.10
2017,06,23,13,17,22.10
2017,06,23,13,18,22.20
2017,06,23,13,19,22.20
2017,06,23,13,20,22.30
2017,06,23,13,21,22.30
2017,06,23,13,22,22.30
2017,06,23,13,23,22.20
2017,06,23,13,24,22.20
2017,06,23,13,25,22.20
2017,06,23,13,26,22.20
2017,06,23,13,27,22.20
2017,06,23,13,28,22.30
2017,06,23,13,29,22.30
2017,06,23,13,30,22.40
2017,06,23,13,31,22.40
2017,06,23,13,32,22.50
2017,06,23,13,33,22.50
2017,06,23,13,34,22.60
2017,06,23,13,35,22.60
2017,06,23,13,36,22.60
2017,06,23,13,37,22.60
2017,06,23,13,38,22.50
2017,06,23,13,39,22.50
2017,06,23,13,40,22.50
2017,06,23,13,41,22.50
2017,06,23,13,42,22.60
2017,06,23,13,43,22.70
2017,06,23,13,44,22.70
2017,06,23,13,45,22.80
2017,06,23,13,46,22.80
2017,06,23,13,47,22.80
2017,06,23,13,48,22.80
2017,06,23,13,49,22.90
2017,06,23,13,50,22.90
2017,06,23,13,51,22.90
2017,06,23,13,52,23.00
2017,06,23,13,53,23.10
2017,06,23,13,54,23.10
2017,06,23,13,55,23.20
2017,06,23,13,56,23.20
2017,06,23,13,57,23.30
2017,06,23,13,58,23.30
2017,06,23,13,59,23.30
2017,06,23,14,00,23.20
2017,06,23,14,01,23.30
2017,06,23,14,02,23.40
2017,06,23,14,03,23.50
2017,06,23,14,04,23.60
2017,06,23,14,05,23.70
2017,06,23,14,06,23.80
2017,06,23,14,07,23.80
2017,06,23,14,08,23.80
2017,06,23,14,09,23.80
2017,06,23,14,10,23.80
2017,06,23,14,11,23.80
2017,06,23,14,12,23.80
2017,06,23,14,13,23.80
2017,06,23,14,14,23.80
2017,06,23,14,15,23.80
2017,06,23,14,16,23.80
2017,06,23,14,17,23.80
2017,06,23,14,18,23.80
2017,06,23,14,19,23.70
2017,06,23,14,20,23.70
2017,06,23,14,21,23.70
2017,06,23,14,22,23.80
2017,06,23,14,23,23.80
2017,06,23,14,24,23.80
2017,06,23,14,25,23.70
2017,06,23,14,26,23.70
2017,06,23,14,27,23.70
2017,06,23,14,28,23.70
2017,06,23,14,29,23.70
2017,06,23,14,30,23.70
2017,06,23,14,31,23.80
2017,06,23,14,32,23.80
2017,06,23,14,33,23.80
2017,06,23,14,34,23.80
2017,06,23,14,35,23.80
2017,06,23,14,36,23.90
2017,06,23,14,37,23.90
2017,06,23,14,38,24.00
2017,06,23,14,39,24.10
2017,06,23,14,40,24.30
2017,06,23,14,41,24.30
2017,06,23,14,42,24.40
2017,06,23,14,43,24.40
2017,06,23,14,44,24.40
2017,06,23,14,45,24.40
2017,06,23,14,46,24.40
2017,06,23,14,47,24.50
2017,06,23,14,48,24.50
2017,06,23,14,49,24.50
2017,06,23,14,50,24.40
2017,06,23,14,51,24.40
2017,06,23,14,52,24.40
2017,06,23,14,53,24.40
2017,06,23,14,54,24.50
2017,06,23,14,55,24.50
2017,06,23,14,56,24.60
2017,06,23,14,57,24.60
2017,06,23,14,58,24.70
2017,06,23,14,59,24.70
2017,06,23,15,00,24.70
2017,06,23,15,01,24.80
2017,06,23,15,02,24.90
2017,06,23,15,03,24.90
2017,06,23,15,04,25.00
2017,06,23,15,05,25.00
2017,06,23,15,06,25.10
2017,06,23,15,07,25.10
2017,06,23,15,08,25.10
2017,06,23,15,09,25.20
2017,06,23,15,10,25.10
2017,06,23,15,11,25.10
2017,06,23,15,12,25.10
2017,06,23,15,13,25.20
2017,06,23,15,14,25.30
2017,06,23,15,15,25.40
2017,06,23,15,16,25.50
2017,06,23,15,17,25.60
2017,06,23,15,18,25.60
2017,06,23,15,19,25.70
2017,06,23,15,20,25.60
2017,06,23,15,21,25.60
2017,06,23,15,22,25.50
2017,06,23,15,23,25.50
2017,06,23,15,24,25.40
2017,06,23,15,25,25.40
2017,06,23,15,26,25.30
2017,06,23,15,27,25.30
2017,06,23,15,28,25.20
2017,06,23,15,29,25.20
2017,06,23,15,30,25.20
2017,06,23,15,31,25.20
2017,06,23,15,32,25.20
2017,06,23,15,33,25.20
2017,06,23,15,34,25.10
2017,06,23,15,35,25.10
2017,06,23,15,36,25.00
2017,06,23,15,37,25.00
2017,06,23,15,38,25.00
2017,06,23,15,39,25.10
2017,06,23,15,40,25.20
2017,06,23,15,41,25.20
2017,06,23,15,42,25.20
2017,06,23,15,43,25.20
2017,06,23,15,44,25.30
2017,06,23,15,45,25.30
2017,06,23,15,46,25.30
2017,06,23,15,47,25.20
2017,06,23,15,48,25.20
2017,06,23,15,49,25.10
2017,06,23,15,50,25.00
2017,06,23,15,51,25.00
2017,06,23,15,52,24.90
2017,06,23,15,53,24.90
2017,06,23,15,54,24.90
2017,06,23,15,55,24.90
2017,06,23,15,56,25.00
2017,06,23,15,57,25.00
2017,06,23,15,58,25.10
2017,06,23,15,59,25.10
2017,06,23,16,00,25.10
2017,06,23,16,01,25.10
2017,06,23,16,02,25.10
2017,06,23,16,03,25.10
2017,06,23,16,04,25.20
2017,06,23,16,05,25.20
2017,06,23,16,06,25.20
2017,06,23,16,07,25.20
2017,06,23,16,08,25.20
2017,06,23,16,09,25.20
2017,06,23,16,10,25.20
2017,06,23,16,11,25.20
2017,06,23,16,12,25.20
2017,06,23,16,13,25.20
2017,06,23,16,14,25.30
2017,06,23,16,15,25.30
2017,06,23,16,16,25.30
2017,06,23,16,17,25.40
2017,06,23,16,18,25.50
2017,06,23,16,19,25.60
2017,06,23,16,20,25.60
2017,06,23,16,21,25.70
2017,06,23,16,22,25.80
2017,06,23,16,23,25.80
2017,06,23,16,24,25.90
2017,06,23,16,25,26.00
2017,06,23,16,26,26.00
2017,06,23,16,27,26.00
2017,06,23,16,28,26.00
2017,06,23,16,29,25.90
2017,06,23,16,30,25.90
2017,06,23,16,31,25.90
2017,06,23,16,32,25.90
2017,06,23,16,33,25.80
2017,06,23,16,34,25.80
2017,06,23,16,35,25.80
2017,06,23,16,36,25.80
2017,06,23,16,37,25.90
2017,06,23,16,38,26.00
2017,06,23,16,39,26.00
2017,06,23,16,40,26.10
2017,06,23,16,41,26.20
2017,06,23,16,42,26.20
2017,06,23,16,43,26.20
2017,06,23,16,44,26.10
2017,06,23,16,45,26.10
2017,06,23,16,46,26.10
2017,06,23,16,47,26.20
2017,06,23,16,48,26.20
2017,06,23,16,49,26.30
2017,06,23,16,50,26.30
2017,06,23,16,51,26.40
2017,06,23,16,52,26.40
2017,06,23,16,53,26.40
2017,06,23,16,54,26.40
2017,06,23,16,55,26.40
2017,06,23,16,56,26.40
2017,06,23,16,57,26.40
2017,06,23,16,58,26.40
2017,06,23,16,59,26.40
2017,06,23,17,00,26.40
2017,06,23,17,01,26.40
2017,06,23,17,02,26.40
2017,06,23,17,03,26.40
2017,06,23,17,04,26.30
2017,06,23,17,05,26.30
2017,06,23,17,06,26.30
2017,06,23,17,07,26.30
2017,06,23,17,08,26.30
2017,06,23,17,09,26.30
2017,06,23,17,10,26.40
2017,06,23,17,11,26.40
2017,06,23,17,12,26.40
2017,06,23,17,13,26.40
2017,06,23,17,14,26.40
2017,06,23,17,15,26.40
2017,06,23,17,16,26.40
2017,06,23,17,17,26.40
2017,06,23,17,18,26.40
2017,06,23,17,19,26.40